[[{"header":{"parameterUnit":"m.s-1","parameterCategory":1,"la1":30.2991,"la2":30.254,"lo1":-89.0895,"lo2":-89.0444,"dy":0.0017,"dx":0.0017,"nx":28,"ny":28,"refTime":"2023-08-25T09:00:00:Z","depth":0,"parameterNumber":2,"parameterNumberName":"U-component_of_WINDS"},"data":[0,0,0,0,0,0,0,0,0,0,0,0,0,0,0,0,0,0,0,0,0,0,0,0,0,0,0,0,0,0,0,0,0,0,0,0,0,0,0,0,0,0,0,0,0,0,0,0,0,0,0,0,0,0,0,0,0,0,-1.8678,-1.8678,0,-1.8606,-1.8605,-1.8604,-1.8523,-1.8522,-1.8521,-1.852,-1.8446,-1.8445,-1.8444,0,0,0,0,0,0,0,0,0,0,0,0,0,-1.8746,-1.8746,-1.8678,-1.8677,-1.8677,-1.8606,-1.8605,-1.8604,-1.8523,-1.8522,-1.852,-1.8519,-1.8446,-1.8445,-1.8444,0,0,0,0,0,0,0,0,0,0,0,0,0,-1.87,-1.8745,-1.8679,-1.8628,-1.8622,-1.8606,-1.8605,-1.8604,-1.8524,-1.8522,-1.852,-1.8518,-1.8446,-1.8445,-1.8444,-1.8472,0,0,-1.844,-1.8439,0,0,0,0,0,0,0,0,-1.8703,-1.8697,-1.8636,-1.8631,-1.8625,-1.8572,-1.8602,-1.856,-1.8524,-1.8561,-1.852,-1.8517,-1.8489,-1.8484,-1.8475,-1.8469,-1.8465,-1.844,-1.8439,-1.8439,-1.8438,0,0,0,0,0,0,0,-1.8706,-1.87,-1.865,-1.8635,-1.8629,-1.8609,-1.86,-1.8594,-1.8536,-1.8558,-1.8552,-1.8544,-1.8486,-1.8476,-1.8472,-1.8464,-1.844,-1.8439,-1.8438,-1.8438,-1.8479,-1.848,0,0,0,0,0,0,-1.8717,-1.8703,-1.8652,-1.8648,-1.866,-1.8609,-1.8599,-1.8591,-1.8536,-1.8526,-1.8546,-1.8541,-1.8479,-1.8474,-1.8469,-1.8499,-1.8439,-1.8437,-1.8437,-1.8477,-1.8479,-1.8481,0,0,0,0,0,0,-1.8719,-1.8713,-1.8655,-1.8674,-1.8665,-1.861,-1.8601,-1.859,-1.858,-1.8527,-1.8516,-1.8547,-1.8478,-1.8471,-1.8472,-1.8496,-1.8437,-1.8436,-1.8475,-1.8477,-1.848,-1.8559,0,0,0,0,0,0,-1.8721,-1.8714,-1.8724,-1.8675,-1.8664,-1.8659,-1.8602,-1.859,-1.8578,-1.8571,-1.8525,-1.8515,-1.8476,-1.8475,-1.8471,-1.8493,-1.8435,-1.8472,-1.8476,-1.8479,-1.8554,-1.8564,-1.8573,0,0,0,0,0,-1.8724,-1.8749,-1.8725,-1.8719,-1.8676,-1.8661,-1.8655,-1.8608,-1.8581,-1.859,-1.8556,-1.8517,-1.8494,-1.8475,-1.8471,-1.8492,-1.8471,-1.8475,-1.8479,-1.855,-1.8563,-1.8573,0,0,0,0,0,0,-1.8803,-1.8742,-1.8714,-1.8725,-1.8699,-1.8647,-1.8658,-1.8623,-1.8604,-1.8598,-1.8541,-1.8531,-1.8539,-1.8516,-1.8496,-1.8517,-1.8476,-1.848,-1.8532,-1.8544,-1.8553,-1.8558,-1.8434,0,0,0,0,0,-1.8821,-1.8814,-1.8761,-1.8776,-1.8764,-1.8714,-1.8705,-1.8672,-1.8642,-1.8631,-1.8596,-1.857,-1.8556,-1.8548,-1.8533,-1.8551,-1.854,-1.8563,-1.8573,-1.8581,-1.8584,-1.8593,-1.8603,-1.8495,-1.8495,-1.8495,0,0,-1.886,-1.8826,-1.8825,-1.8791,-1.8766,-1.8761,-1.8705,-1.87,-1.8696,-1.863,-1.8629,-1.8603,-1.8569,-1.8579,-1.8581,-1.856,-1.8612,-1.8586,-1.8593,-1.8592,-1.8598,-1.8608,-1.8617,-1.8498,-1.8497,-1.8497,0,0,-1.8927,-1.89,-1.891,-1.8887,-1.8851,-1.8817,-1.882,-1.8773,-1.8754,-1.8752,-1.8703,-1.8696,-1.8674,-1.8652,-1.8638,-1.8698,-1.8661,-1.8695,-1.8744,-1.8752,-1.8761,-1.8768,-1.879,-1.8799,-1.8699,-1.8699,-1.8699,0,-1.8979,-1.8969,-1.8919,-1.8918,-1.8905,-1.8845,-1.8855,-1.8835,-1.8796,-1.8788,-1.8764,-1.8736,-1.8709,-1.8713,-1.8728,-1.8718,-1.8719,-1.87,-1.8764,-1.8771,-1.8777,-1.8797,-1.8805,-1.8703,-1.8703,-1.8702,-1.8702,0,-1.9035,-1.9028,-1.904,-1.9004,-1.8992,-1.8997,-1.8948,-1.8942,-1.891,-1.8879,-1.8878,-1.8844,-1.8821,-1.8819,-1.8788,-1.8819,-1.8807,-1.8774,-1.8732,-1.8792,-1.881,-1.8818,-1.8709,-1.8708,-1.8706,-1.8705,0,0,-1.915,-1.9087,-1.9092,-1.9076,-1.9032,-1.9026,-1.9028,-1.9005,-1.9002,-1.8977,-1.8977,-1.896,-1.893,-1.8915,-1.888,-1.8888,-1.8938,-1.8854,-1.8852,-1.8871,-1.8971,-1.8997,-1.9006,-1.8914,-1.8915,-1.8916,-1.8974,0,-1.9209,-1.9209,-1.9165,-1.9177,-1.917,-1.9114,-1.9116,-1.909,-1.9061,-1.9051,-1.9019,-1.9009,-1.8969,-1.896,-1.8965,-1.8931,-1.8958,-1.8926,-1.8914,-1.8914,-1.8925,-1.9016,-1.9042,-1.9099,-1.8981,-1.8982,-1.8983,0,-1.9279,-1.9259,-1.927,-1.9227,-1.9223,-1.9225,-1.9201,-1.9193,-1.9162,-1.9141,-1.9124,-1.9085,-1.9084,-1.9044,-1.9042,-1.9022,-1.9014,-1.8997,-1.8998,-1.8996,-1.8953,-1.9016,-1.9116,-1.9125,-1.8994,-1.8993,-1.8992,0,-1.9362,-1.9338,-1.9342,-1.9329,-1.9279,-1.9282,-1.9261,-1.9228,-1.9218,-1.9197,-1.919,-1.917,-1.9159,-1.9144,-1.9101,-1.9076,-1.9104,-1.9061,-1.9087,-1.9088,-1.9096,-1.9096,-1.9196,-1.909,-1.909,-1.909,-1.909,0,-1.9433,-1.9443,-1.9379,-1.9381,-1.939,-1.9339,-1.935,-1.9323,-1.9295,-1.9292,-1.9242,-1.924,-1.9183,-1.9174,-1.9141,-1.9145,-1.914,-1.9123,-1.9114,-1.9128,-1.913,-1.9122,-1.9117,-1.9092,-1.9092,-1.9091,-1.9091,0,-1.9528,-1.9485,-1.9486,-1.9438,-1.9427,-1.9436,-1.9395,-1.9395,-1.9364,-1.936,-1.9356,-1.9307,-1.9295,-1.925,-1.9227,-1.9204,-1.9219,-1.9201,-1.923,-1.9224,-1.9253,-1.9251,-1.9352,-1.9363,-1.925,-1.9251,-1.9252,0,-1.9577,-1.9583,-1.9536,-1.953,-1.9512,-1.9503,-1.9492,-1.9443,-1.9434,-1.94,-1.9405,-1.9388,-1.9373,-1.9356,-1.9318,-1.93,-1.9281,-1.9318,-1.9278,-1.9292,-1.9283,-1.9283,-1.9284,-1.9327,-1.9328,-1.933,-1.9331,0,-1.9668,-1.9646,-1.9633,-1.9613,-1.9602,-1.9583,-1.9562,-1.956,-1.9504,-1.9497,-1.9484,-1.9472,-1.9448,-1.9433,-1.9409,-1.9388,-1.935,-1.9343,-1.9349,-1.9363,-1.9379,-1.9371,-1.9254,-1.9341,-1.934,-1.9339,-1.9339,-1.9338,-1.9741,-1.9744,-1.9712,-1.9699,-1.9678,-1.9659,-1.9658,-1.9626,-1.9614,-1.9591,-1.9563,-1.9554,-1.9523,-1.9487,-1.9469,-1.9461,-1.944,-1.9447,-1.9449,-1.9452,-1.9459,-1.9381,-1.9456,-1.9456,-1.9455,-1.9455,-1.9455,0,-1.983,-1.9807,-1.9795,-1.9767,-1.9757,-1.9723,-1.9698,-1.9692,-1.9684,-1.9659,-1.9645,-1.963,-1.9615,-1.9577,-1.9558,-1.956,-1.9542,-1.9556,-1.9556,-1.9552,-1.9478,-1.9476,-1.9571,-1.9571,-1.9571,-1.9571,-1.9571,-1.9571,-1.9875,-1.9879,-1.9854,-1.9847,-1.9823,-1.9814,-1.9803,-1.9785,-1.9765,-1.9751,-1.9739,-1.9714,-1.9683,-1.9662,-1.9647,-1.9636,-1.9632,-1.9652,-1.9636,-1.9568,-1.9557,-1.9546,-1.9544,-1.9651,-1.9652,-1.971,-1.971,-1.9711]},{"header":{"parameterUnit":"m.s-1","parameterCategory":1,"la1":30.2991,"la2":30.254,"lo1":-89.0895,"lo2":-89.0444,"dy":0.0017,"dx":0.0017,"nx":28,"ny":28,"refTime":"2023-08-25T09:00:00:Z","depth":0,"parameterNumber":3,"parameterNumberName":"V-component_of_WINDS"},"data":[0,0,0,0,0,0,0,0,0,0,0,0,0,0,0,0,0,0,0,0,0,0,0,0,0,0,0,0,0,0,0,0,0,0,0,0,0,0,0,0,0,0,0,0,0,0,0,0,0,0,0,0,0,0,0,0,0,0,-0.8399,-0.8399,0,-0.8448,-0.8448,-0.8449,-0.8446,-0.8445,-0.8445,-0.8444,-0.8494,-0.8496,-0.8498,0,0,0,0,0,0,0,0,0,0,0,0,0,-0.8304,-0.8306,-0.8399,-0.8399,-0.84,-0.8447,-0.8448,-0.8449,-0.8446,-0.8445,-0.8445,-0.8444,-0.8494,-0.8496,-0.8498,0,0,0,0,0,0,0,0,0,0,0,0,0,-0.8348,-0.8307,-0.8399,-0.8404,-0.8405,-0.8447,-0.8448,-0.8449,-0.8446,-0.8445,-0.8444,-0.8443,-0.8493,-0.8496,-0.8499,-0.8538,0,0,-0.8508,-0.8509,0,0,0,0,0,0,0,0,-0.8346,-0.8352,-0.8403,-0.8404,-0.8405,-0.844,-0.8433,-0.8479,-0.8447,-0.8431,-0.8444,-0.8443,-0.8477,-0.8481,-0.8493,-0.854,-0.8543,-0.8508,-0.851,-0.8511,-0.8512,0,0,0,0,0,0,0,-0.8343,-0.835,-0.8418,-0.8404,-0.8405,-0.8405,-0.841,-0.8442,-0.8459,-0.8432,-0.8432,-0.8438,-0.8477,-0.849,-0.8494,-0.8543,-0.8508,-0.8511,-0.8512,-0.8514,-0.8627,-0.8628,0,0,0,0,0,0,-0.8339,-0.8347,-0.8416,-0.8419,-0.8372,-0.8407,-0.8413,-0.843,-0.8459,-0.8462,-0.8439,-0.8438,-0.8485,-0.849,-0.8496,-0.8544,-0.8511,-0.8514,-0.8516,-0.8626,-0.8627,-0.8628,0,0,0,0,0,0,-0.8336,-0.8345,-0.8415,-0.8383,-0.8392,-0.841,-0.8429,-0.8431,-0.8444,-0.8464,-0.8467,-0.8448,-0.8485,-0.8491,-0.8528,-0.8546,-0.8515,-0.8518,-0.8624,-0.8626,-0.8628,-0.8642,0,0,0,0,0,0,-0.8334,-0.8344,-0.8359,-0.8384,-0.8394,-0.8446,-0.843,-0.8433,-0.8449,-0.8448,-0.8474,-0.8477,-0.8484,-0.8523,-0.8531,-0.855,-0.852,-0.8623,-0.8625,-0.8627,-0.864,-0.8644,-0.8647,0,0,0,0,0,-0.833,-0.8361,-0.836,-0.8368,-0.8413,-0.8447,-0.8453,-0.8461,-0.845,-0.8466,-0.8479,-0.8476,-0.8543,-0.8527,-0.8535,-0.8555,-0.8622,-0.8624,-0.8627,-0.8638,-0.8643,-0.8647,0,0,0,0,0,0,-0.8337,-0.8364,-0.8363,-0.8402,-0.8422,-0.8446,-0.8466,-0.8465,-0.8489,-0.8487,-0.8496,-0.8502,-0.8538,-0.855,-0.8532,-0.8596,-0.8581,-0.8585,-0.8586,-0.8591,-0.8595,-0.8592,-0.8523,0,0,0,0,0,-0.8343,-0.8368,-0.839,-0.8423,-0.8433,-0.8448,-0.8463,-0.8467,-0.8488,-0.8497,-0.8512,-0.8533,-0.8559,-0.8576,-0.86,-0.8641,-0.8647,-0.8659,-0.8663,-0.8666,-0.867,-0.8694,-0.8699,-0.8637,-0.8637,-0.8637,0,0,-0.8356,-0.8374,-0.8389,-0.8425,-0.8441,-0.8467,-0.8455,-0.8483,-0.8502,-0.8501,-0.8537,-0.8549,-0.8573,-0.8612,-0.863,-0.8623,-0.8689,-0.867,-0.8672,-0.8674,-0.8697,-0.8703,-0.8708,-0.8639,-0.8639,-0.8639,0,0,-0.8393,-0.8409,-0.8438,-0.8454,-0.8479,-0.8489,-0.8496,-0.852,-0.8528,-0.8564,-0.8564,-0.8587,-0.8631,-0.8648,-0.8663,-0.8707,-0.8706,-0.8715,-0.8735,-0.8758,-0.8763,-0.8767,-0.8784,-0.8789,-0.8719,-0.8719,-0.8719,0,-0.8406,-0.8445,-0.8453,-0.8482,-0.8498,-0.8498,-0.8528,-0.8543,-0.8574,-0.8586,-0.8578,-0.8633,-0.8649,-0.8693,-0.8704,-0.8715,-0.8724,-0.8712,-0.8761,-0.8766,-0.877,-0.8786,-0.8792,-0.872,-0.872,-0.8719,-0.8719,0,-0.8461,-0.8488,-0.8508,-0.8539,-0.8557,-0.8586,-0.8599,-0.8617,-0.862,-0.863,-0.8667,-0.8686,-0.8715,-0.8726,-0.8729,-0.877,-0.8765,-0.8759,-0.8745,-0.8777,-0.8792,-0.8798,-0.8721,-0.8721,-0.872,-0.872,0,0,-0.8503,-0.8538,-0.8546,-0.856,-0.8587,-0.8609,-0.8638,-0.8666,-0.8682,-0.8703,-0.8729,-0.8766,-0.8761,-0.8777,-0.8782,-0.8802,-0.8837,-0.8794,-0.8795,-0.8802,-0.8885,-0.889,-0.8897,-0.8836,-0.8838,-0.8839,-0.8883,0,-0.8544,-0.8596,-0.8604,-0.865,-0.8675,-0.8676,-0.8702,-0.8722,-0.8733,-0.8756,-0.8768,-0.8795,-0.8785,-0.8796,-0.8815,-0.8829,-0.8854,-0.8826,-0.8861,-0.8862,-0.8855,-0.8905,-0.891,-0.8951,-0.8889,-0.889,-0.8891,0,-0.8597,-0.8621,-0.867,-0.8694,-0.8705,-0.8728,-0.8756,-0.8778,-0.8801,-0.8807,-0.8826,-0.8829,-0.886,-0.8844,-0.8887,-0.8868,-0.8882,-0.8891,-0.8893,-0.8897,-0.8879,-0.8911,-0.8965,-0.8971,-0.89,-0.89,-0.8899,0,-0.8625,-0.8669,-0.8704,-0.8716,-0.8745,-0.8761,-0.8774,-0.8796,-0.8813,-0.8837,-0.8848,-0.8875,-0.889,-0.8911,-0.8921,-0.8908,-0.8964,-0.8949,-0.8971,-0.8971,-0.8983,-0.8982,-0.9041,-0.8992,-0.8992,-0.8991,-0.8991,0,-0.8669,-0.8699,-0.8716,-0.8738,-0.8772,-0.8781,-0.8814,-0.8827,-0.8846,-0.8871,-0.8873,-0.8895,-0.8907,-0.8932,-0.894,-0.8976,-0.8982,-0.8989,-0.8991,-0.8989,-0.8988,-0.8999,-0.8997,-0.8993,-0.8993,-0.8992,-0.8992,0,-0.8706,-0.8718,-0.8756,-0.8781,-0.8788,-0.8812,-0.8834,-0.8855,-0.8866,-0.8897,-0.8904,-0.8922,-0.8951,-0.8963,-0.8999,-0.9005,-0.9045,-0.9045,-0.9038,-0.9039,-0.9061,-0.9059,-0.9129,-0.9139,-0.9082,-0.9083,-0.9083,0,-0.8734,-0.8757,-0.8784,-0.8801,-0.8814,-0.8841,-0.8858,-0.8868,-0.8886,-0.8915,-0.8933,-0.8962,-0.8986,-0.9033,-0.9049,-0.9077,-0.9077,-0.91,-0.9082,-0.9079,-0.9079,-0.9077,-0.908,-0.9104,-0.9104,-0.9105,-0.9105,0,-0.8782,-0.8787,-0.8812,-0.884,-0.8861,-0.8883,-0.8904,-0.8918,-0.8931,-0.8952,-0.8982,-0.9001,-0.9038,-0.9067,-0.9096,-0.911,-0.911,-0.9111,-0.9117,-0.9116,-0.9111,-0.9115,-0.9048,-0.9109,-0.9109,-0.9108,-0.9108,-0.9108,-0.8816,-0.8837,-0.8859,-0.8887,-0.8905,-0.8925,-0.8947,-0.896,-0.8986,-0.9017,-0.9021,-0.9054,-0.9077,-0.9115,-0.913,-0.9156,-0.915,-0.916,-0.9163,-0.9165,-0.9167,-0.9107,-0.9161,-0.9161,-0.9161,-0.9161,-0.9161,0,-0.8865,-0.888,-0.8905,-0.8936,-0.8958,-0.8956,-0.898,-0.8999,-0.9028,-0.9049,-0.9073,-0.9108,-0.9137,-0.9155,-0.9184,-0.9201,-0.9202,-0.9209,-0.9208,-0.9211,-0.917,-0.9161,-0.9208,-0.9208,-0.9208,-0.9208,-0.9208,-0.9208,-0.8893,-0.8929,-0.8937,-0.8981,-0.8996,-0.9028,-0.9042,-0.9061,-0.9078,-0.9117,-0.9141,-0.9153,-0.9174,-0.9204,-0.9231,-0.9235,-0.9246,-0.9253,-0.9258,-0.9219,-0.9214,-0.9209,-0.9202,-0.9255,-0.9256,-0.9297,-0.9298,-0.9298]}]]